Location: Newark
(40.9833°N, 0.0333°W)
Time: 08:36:09
(UTC+00:00)

Transit 4A - Pass Details

Date: 03 November 2020
Orbit: 862 x 982 km, 66.8° (Epoch: 28 November)

Event Time Altitude Azimuth Distance (km) Brightness Sun altitude
Rises 23:26:14 0° 323° (NW) 3,688 - -64.2°
Reaches altitude 10° 23:28:58 10° 317° (NW) 2,729 - -64.3°
Maximum altitude 23:34:52 41° 250° (WSW) 1,364 - -64.4°
Drops below altitude 10° 23:40:37 10° 182° (S) 2,656 - -64.5°
Sets 23:43:15 0° 175° (S) 3,579 - -64.5°
